RH
65 65 64 62 60 58 58 53 51 51 50 54 57 57 60 64 60 59 63 66 68 70
73 71 68 67 65 62 59 54 57 61 59 55 58 62 65 68 68 67 75 78 86 87
78 80 74 68 69 71 68 64 52 54 62 67 64 63 69 70 74 80 86 89 95 95
77 75 77 76 75 65 57 53 52 47 50 57 62 68 75 80 87 92 94 96 94 91
79 76 69 71 60 54 47 45 46 50 58 67 78 84 92 92 90 93 95 96 96 94
73 62 53 43 40 43 48 51 54 58 67 73 83 88 85 85 87 89 90 90 91 91
48 42 39 42 46 51 51 54 58 62 65 67 65 59 60 55 50 49 60 68 72 74
38 39 41 46 48 50 53 58 59 59 60 54 51 51 44 39 35 35 40 42 48 51
44 45 49 50 50 54 57 59 60 54 52 51 49 50 42 42 42 42 41 45 47 50
55 56 56 57 57 63 70 64 54 53 51 53 56 57 50 48 49 50 49 53 57 57
62 64 62 64 66 72 64 57 54 53 55 54 59 65 61 62 63 64 68 68 67 63
65 71 72 70 75 69 60 60 53 54 57 59 66 73 74 72 71 74 74 74 73 72
66 75 79 77 79 64 61 58 52 53 59 64 71 78 78 78 76 77 75 78 80 74
78 81 80 83 70 59 57 57 54 54 58 68 80 85 88 88 91 95 93 91 87 80